#timestamp,LO_Frequency,Hit,StdDev 
1617937215.9,286046997.1,N
1617937235.7,286046996.7,N
1617937255.6,286046997.6,N
1617937275.4,286046995.3,N
1617937295.2,286046997.8,N
1617937315.1,286046996.7,N
1617937316.0,286046996.7,N
1617937335.8,286046999.5,N
1617937355.7,286046998.7,N
1617937375.5,286047000.9,N
1617937395.3,286047000.8,N
1617937415.2,286046998.4,N
1617937435.0,286046999.0,N
1617937435.9,286046999.0,N
1617937455.8,286046999.2,N
1617937475.6,286046999.3,N
1617937495.4,286047000.6,N
1617937515.3,286047001.2,N
1617937535.1,286046999.4,N
1617937555.8,286046998.3,N
1617937575.7,286047001.0,N
1617937595.5,286047001.1,N
1617937615.4,286047002.7,N
1617937635.2,286047000.0,N
1617937655.0,286047000.1,N
1617937655.9,286047000.1,N
1617937675.8,286047000.6,N
1617937695.6,286047000.8,N
1617937715.5,286047000.3,N
1617937735.3,286047002.7,N
1617937755.1,286047000.1,N
1617937775.9,286046998.8,N
1617937795.7,286046999.6,N
1617937815.5,286047000.6,N
1617937835.4,286047000.6,N
1617937855.2,286047000.6,N
1617937875.1,286046998.7,N
1617937876.0,286046998.7,N
1617937895.8,286047000.2,N
1617937915.6,286046998.3,N
1617937935.5,286046996.8,N
1617937955.3,286046997.9,N
1617937975.2,286046996.1,Y
1617937995.9,286046993.4,P
1617938015.7,286046995.0,N
1617938035.6,286046997.4,N
1617938055.4,286046996.5,N
1617938075.2,286046996.7,N
1617938095.1,286046999.5,N
1617938096.0,286046999.5,N
1617938115.8,286046999.6,N
1617938135.7,286047001.0,N
1617938155.5,286047002.8,N
1617938175.3,286046999.7,N
1617938195.2,286047002.5,N
1617938215.0,286047000.3,N
1617938215.9,286047000.3,N
1617938235.8,286047001.0,N
1617938255.6,286047000.4,N
1617938275.4,286047000.9,N
1617938295.3,286047000.2,N
1617938315.1,286047001.2,N
1617938335.8,286046998.4,N
1617938355.7,286046998.9,N
1617938375.5,286046999.0,N
1617938425.4,286047000.9,E
1617938435.3,286047001.2,N
1617938455.1,286046998.1,P
1617938475.9,286046998.4,N
1617938495.7,286047001.2,N
1617938515.6,286046998.7,N
1617938535.4,286047000.6,N
1617938555.2,286047000.9,N
1617938575.1,286046998.5,N
1617938576.0,286046998.5,N
1617938595.8,286046999.8,N
1617938615.6,286047000.4,N
1617938635.5,286046999.9,N
1617938655.3,286047000.9,N
1617938675.2,286047000.4,N
1617938695.0,286047000.6,N
1617938695.9,286047000.6,N
1617938715.7,286046999.7,N
1617938735.6,286047002.5,N
1617938755.4,286047001.5,N
1617938775.3,286047001.5,N
1617938795.1,286047002.4,N
1617938796.0,286047002.4,N
1617938815.8,286047002.9,N
1617938835.7,286047004.0,N
1617938855.5,286046999.9,N
1617938875.3,286047000.1,N
1617938895.2,286047000.8,N
1617938915.0,286046998.6,N
1617938915.9,286046998.6,N
1617938935.8,286046999.2,N
1617938955.6,286046998.3,N
1617938975.4,286047001.1,N
1617938995.3,286047000.1,N
1617939015.1,286046998.1,N
1617939035.9,286047001.2,N
1617939055.7,286046999.8,N
1617939075.5,286047000.6,N
1617939095.4,286047000.8,N
1617939115.2,286046998.2,N
1617939135.0,286047000.5,N
1617939135.9,286047000.5,N
1617939155.8,286046998.9,N
1617939175.6,286046999.8,N
1617939195.5,286047000.2,N
1617939215.3,286047000.0,N
1617939235.1,286046999.7,N
1617939255.9,286047001.0,N
1617939275.7,286047000.3,N
1617939295.5,286047000.9,N
1617939315.4,286047000.1,N
1617939335.2,286047000.9,N
1617939355.1,286046999.9,N
1617939356.0,286046999.9,N
1617939375.8,286046998.2,N
1617939395.6,286046998.2,N
1617939415.5,286047001.1,N
1617939435.3,286046999.8,N
1617939455.1,286047002.3,N
1617939475.9,286047000.7,N
1617939495.7,286047000.2,N
1617939515.6,286047000.9,N
1617939535.4,286047002.1,N
1617939555.2,286047003.4,Y
1617939575.1,286047001.8,P
1617939576.0,286047001.8,N
1617939595.8,286047002.5,P
1617939615.6,286047002.5,N
1617939635.5,286047000.8,N
1617939655.3,286047002.0,N
1617939675.2,286047002.7,Y
1617939695.9,286046998.8,P
1617939715.7,286046998.6,N
1617939735.6,286046999.0,N
1617939755.4,286046999.4,N
1617939775.2,286046999.6,N
1617939795.1,286046996.5,Y
1617939796.0,286046996.5,P
1617939815.8,286046997.1,N
1617939835.7,286046999.5,N
1617939855.5,286046998.4,N
1617939875.4,286047002.6,N
1617939895.2,286047002.7,N
1617939915.0,286047000.3,N
1617939915.9,286047000.3,N
1617939935.8,286047000.4,N
1617939955.6,286046999.8,N
1617939975.4,286046998.5,N
1617939995.3,286046999.5,N
1617940015.1,286046997.1,N
1617940035.9,286046996.9,N
1617940055.7,286046997.8,N
1617940075.5,286046997.4,N
1617940095.4,286046997.1,N
1617940115.2,286046997.8,N
1617940135.0,286046998.9,N
1617940135.9,286046998.9,N
1617940155.8,286046998.8,N
1617940175.6,286046999.0,N
1617940195.5,286046999.6,N
1617940215.3,286046998.4,N
1617940235.1,286047001.0,N
1617940255.9,286046998.2,N
1617940275.7,286046998.6,N
1617940295.5,286047000.4,N
1617940315.4,286046998.6,N
1617940335.2,286046996.6,N
1617940355.1,286046999.5,N
1617940356.0,286046999.5,N
1617940375.8,286046999.0,N
1617940395.6,286046998.8,N
1617940415.5,286047001.0,N
1617940435.3,286047002.4,N
1617940455.2,286047000.5,N
1617940475.9,286047000.2,N
1617940495.7,286046999.0,N
1617940515.6,286046999.3,N
1617940535.4,286046997.0,N
1617940555.2,286046999.1,N
1617940575.1,286046998.7,N
1617940576.0,286046998.7,N
1617940595.8,286046998.6,N
1617940615.7,286046998.5,N
1617940635.5,286046999.0,N
1617940655.3,286046996.5,Y
1617940675.2,286046998.2,P
1617940695.0,286046999.3,N
1617940695.9,286046999.3,N
1617940715.8,286046998.5,Y
1617940735.6,286047000.3,P
1617940755.4,286047000.0,N
1617940775.3,286047000.8,N
1617940795.1,286047000.8,N
